星链-3871 (STARLINK-3871 )

导读

STARLINK-3871是美国太空探索技术公司SpaceX星链星座中的一颗低轨通信卫星,于2022年5月6日发射升空,归属于美国,是星链第一代组网卫星的组成部分。星链项目旨在为全球提供高速低时延宽带互联网接入服务,该卫星采用紧凑平板设计,配备相控阵天线与离子推进系统,运行在近地轨道,支撑全球覆盖的卫星互联网服务,属于SpaceX大规模星座组网计划的一环,助力星链实现全球空天地一体化网络覆盖。

基本信息
目录编号:
52496
目录名称:
STARLINK-3871
国际标识:
2022-049AX
轨道中心:
EARTH
卫星名称:
星链-3871
卫星全名:
星链-3871 (STARLINK-3871 )
卫星状态:
在轨 (已飞行1503 天)
发射日期:
2022-05-06 UTC
国别 :
美国 (US)
星等 :
--
轨道信息
数据来源 国际轨道数据 AOE轨道数据
星历时间 2026-06-17T11:19:46+0800
12小时前
查看轨道信息
2026-06-16T08:00:00+0800
1天前
查看轨道信息
半长轴 6917.885km 6917.915km
偏心率 0.000126 0.0001248
轨道倾角 53.161° 53.159°
近地点辐角 84.382° 101.871°
升交点赤经 317.579° 322.701°
平近点角 275.732° 189.450°
近地点 538.876km 538.914km
远地点 540.62km 540.642km
周期 95.438分钟 95.438分钟
每日圈数 15.088385 15.088287
详细信息
固有亮度:
5
最大亮度:
2.5
卫星平台:
Starlink v1.5
覆盖范围:
全球
运营商:
太空探索技术公司
运营商所在国:
美国
制造商(研发单位):
太空探索技术公司
制造商所在国:
美国
使用方式:
暂无
卫星简介
星链(Starlink)计划是由太空探索技术公司(SpaceX)提出的一个巨型低轨卫星互联网星座项目,计划在2019年至2024年间在太空搭建由约1.2万颗卫星组成的“星链”网络,其中1584颗将部署在地球上空550千米处的近地轨道,并从2020年开始工作。该卫星仍在工作。
2D轨道图
3D轨道图
轨道高度分析图
轨道倾角分析图
轨道综合分析图
查看轨道综合分析图